[[{"header":{"parameterUnit":"m.s-1","parameterCategory":1,"la1":30.2991,"la2":30.254,"lo1":-89.0895,"lo2":-89.0444,"dy":0.0017,"dx":0.0017,"nx":28,"ny":28,"refTime":"2023-08-15T21:00:00:Z","depth":0,"parameterNumber":2,"parameterNumberName":"U-component_of_WINDS"},"data":[0,0,0,0,0,0,0,0,0,0,0,0,0,0,0,0,0,0,0,0,0,0,0,0,0,0,0,0,0,0,0,0,0,0,0,0,0,0,0,0,0,0,0,0,0,0,0,0,0,0,0,0,0,0,0,0,0,0,2.5628,2.5629,0,2.5674,2.5674,2.5675,2.5634,2.5632,2.5631,2.5629,2.5678,2.5681,2.5684,0,0,0,0,0,0,0,0,0,0,0,0,0,2.5508,2.5511,2.5628,2.5629,2.5629,2.5674,2.5674,2.5675,2.5634,2.5632,2.563,2.5628,2.5677,2.5681,2.5684,0,0,0,0,0,0,0,0,0,0,0,0,0,2.5558,2.5512,2.5628,2.5614,2.5613,2.5674,2.5674,2.5675,2.5635,2.5632,2.563,2.5627,2.5676,2.568,2.5685,2.5761,0,0,2.5698,2.57,0,0,0,0,0,0,0,0,2.5555,2.5562,2.5616,2.5615,2.5615,2.5646,2.565,2.5704,2.5635,2.5627,2.5629,2.5626,2.567,2.5674,2.5688,2.5764,2.5766,2.5698,2.5701,2.5703,2.5704,0,0,0,0,0,0,0,2.5552,2.556,2.5646,2.5617,2.5616,2.5607,2.5611,2.566,2.5662,2.5627,2.5624,2.563,2.5669,2.5684,2.5689,2.5767,2.5698,2.5702,2.5705,2.5706,2.5907,2.591,0,0,0,0,0,0,2.555,2.5558,2.5645,2.5648,2.5578,2.5611,2.5616,2.5638,2.5661,2.5662,2.5632,2.5628,2.5678,2.5684,2.5691,2.5781,2.5703,2.5707,2.5709,2.5905,2.5908,2.5911,0,0,0,0,0,0,2.5547,2.5558,2.5643,2.5602,2.5612,2.5616,2.5641,2.564,2.5656,2.5665,2.5665,2.5648,2.5676,2.5685,2.5744,2.5782,2.5709,2.5712,2.5901,2.5906,2.5909,2.5962,0,0,0,0,0,0,2.5544,2.5557,2.5585,2.5603,2.5614,2.5694,2.5644,2.5643,2.5663,2.5658,2.5679,2.568,2.5675,2.5738,2.5748,2.5787,2.5716,2.5898,2.5903,2.5908,2.5957,2.5968,2.5977,0,0,0,0,0,2.554,2.5599,2.5587,2.5598,2.565,2.5697,2.5703,2.5695,2.5666,2.5695,2.5701,2.568,2.5777,2.5744,2.5756,2.5796,2.5895,2.5902,2.5908,2.5953,2.5966,2.5977,0,0,0,0,0,0,2.5586,2.5601,2.5588,2.5655,2.5675,2.5689,2.5725,2.5709,2.5738,2.5732,2.5722,2.5728,2.579,2.5799,2.5762,2.5872,2.5832,2.584,2.5862,2.5874,2.5884,2.5879,2.5719,0,0,0,0,0,2.5605,2.5641,2.5652,2.571,2.5721,2.5722,2.5742,2.5734,2.5754,2.5763,2.5773,2.5795,2.583,2.5853,2.5887,2.596,2.5963,2.5994,2.6003,2.6012,2.6018,2.6057,2.607,2.5931,2.5931,2.5931,0,0,2.5642,2.5655,2.5678,2.572,2.5734,2.5772,2.5729,2.5771,2.5799,2.577,2.5824,2.5834,2.5858,2.5924,2.5953,2.5934,2.6058,2.6019,2.6026,2.6028,2.6064,2.6078,2.6089,2.5935,2.5935,2.5934,0,0,2.5729,2.5743,2.5791,2.5807,2.583,2.583,2.5843,2.586,2.5865,2.592,2.5899,2.5934,2.5995,2.6012,2.6029,2.6125,2.6106,2.6137,2.6187,2.6225,2.6235,2.6245,2.6277,2.6289,2.6144,2.6144,2.6144,0,2.5772,2.5827,2.5819,2.5862,2.5881,2.5857,2.5906,2.5922,2.5955,2.5969,2.5947,2.6023,2.6038,2.6107,2.613,2.6146,2.6159,2.6132,2.6235,2.6244,2.6253,2.6283,2.6296,2.6148,2.6147,2.6147,2.6147,0,2.5879,2.5918,2.5955,2.5986,2.601,2.6056,2.6055,2.6081,2.6072,2.6075,2.6133,2.615,2.6185,2.6202,2.6195,2.6271,2.6258,2.6236,2.6195,2.6269,2.6298,2.631,2.6152,2.6151,2.615,2.6149,0,0,2.5992,2.602,2.6033,2.6046,2.6071,2.6101,2.6148,2.6182,2.6203,2.6228,2.6265,2.6319,2.6298,2.6318,2.6313,2.6346,2.6419,2.632,2.632,2.6335,2.6503,2.6516,2.653,2.6409,2.6411,2.6413,2.65,0,2.6078,2.6156,2.6151,2.6224,2.626,2.6239,2.6279,2.6299,2.6304,2.6336,2.6343,2.638,2.6351,2.6363,2.6396,2.6403,2.6452,2.6397,2.6443,2.6444,2.6433,2.6545,2.656,2.6641,2.6511,2.6513,2.6514,0,2.6187,2.6214,2.6291,2.6309,2.6324,2.636,2.6391,2.6422,2.6445,2.6447,2.6469,2.6459,2.6506,2.6468,2.6533,2.6496,2.6515,2.6522,2.6525,2.6526,2.6481,2.6546,2.6667,2.6678,2.6532,2.6531,2.653,0,2.6258,2.6315,2.6367,2.638,2.6405,2.643,2.6442,2.6462,2.6483,2.6512,2.6525,2.6559,2.6577,2.6605,2.6604,2.6576,2.667,2.6632,2.6672,2.6672,2.6689,2.6688,2.6811,2.6708,2.6708,2.6708,2.6707,0,2.6352,2.6399,2.64,2.6432,2.6485,2.648,2.6533,2.6542,2.656,2.6595,2.6581,2.6613,2.6612,2.6646,2.6647,2.67,2.671,2.6712,2.6711,2.6711,2.671,2.672,2.6714,2.6711,2.671,2.671,2.6709,0,2.6438,2.6441,2.6497,2.6516,2.6522,2.656,2.6576,2.6607,2.6613,2.6656,2.6666,2.6675,2.6714,2.6717,2.6763,2.6764,2.6827,2.6822,2.6819,2.6817,2.6856,2.6851,2.6988,2.7005,2.6893,2.6895,2.6895,0,2.6496,2.6531,2.6554,2.6575,2.6588,2.6623,2.6645,2.6643,2.6666,2.6695,2.6723,2.6761,2.679,2.6854,2.6865,2.69,2.6894,2.694,2.6899,2.6898,2.6891,2.6887,2.689,2.6946,2.6947,2.6948,2.6949,0,2.6596,2.6596,2.6627,2.6659,2.6684,2.671,2.6733,2.6752,2.6753,2.678,2.6819,2.6842,2.6889,2.6926,2.6962,2.6975,2.6962,2.6963,2.6973,2.6972,2.6967,2.6967,2.6837,2.6958,2.6957,2.6957,2.6956,2.6956,2.6668,2.6698,2.6719,2.6754,2.6772,2.6794,2.6824,2.6833,2.6865,2.6902,2.69,2.6943,2.6967,2.7012,2.7029,2.7063,2.7048,2.7064,2.7068,2.7071,2.7073,2.6965,2.707,2.707,2.707,2.707,2.707,0,2.6765,2.6778,2.681,2.6843,2.6871,2.6858,2.6884,2.6907,2.6945,2.6968,2.6998,2.7043,2.708,2.7095,2.7131,2.7156,2.7151,2.7166,2.7162,2.7165,2.7086,2.7072,2.7169,2.7169,2.7169,2.7169,2.7169,2.7169,2.6819,2.6869,2.6872,2.6931,2.6944,2.6985,2.7,2.7022,2.704,2.709,2.712,2.713,2.715,2.7188,2.7222,2.7225,2.7238,2.7254,2.7255,2.7181,2.717,2.7161,2.7147,2.7258,2.7258,2.733,2.7331,2.7331]},{"header":{"parameterUnit":"m.s-1","parameterCategory":1,"la1":30.2991,"la2":30.254,"lo1":-89.0895,"lo2":-89.0444,"dy":0.0017,"dx":0.0017,"nx":28,"ny":28,"refTime":"2023-08-15T21:00:00:Z","depth":0,"parameterNumber":3,"parameterNumberName":"V-component_of_WINDS"},"data":[0,0,0,0,0,0,0,0,0,0,0,0,0,0,0,0,0,0,0,0,0,0,0,0,0,0,0,0,0,0,0,0,0,0,0,0,0,0,0,0,0,0,0,0,0,0,0,0,0,0,0,0,0,0,0,0,0,0,-0.0664,-0.0661,0,-0.0403,-0.04,-0.0397,-0.0319,-0.0321,-0.0322,-0.0323,-0.0048,-0.004,-0.0031,0,0,0,0,0,0,0,0,0,0,0,0,0,-0.1086,-0.1079,-0.0664,-0.0661,-0.0657,-0.0404,-0.04,-0.0396,-0.0319,-0.0321,-0.0322,-0.0324,-0.0051,-0.0041,-0.003,0,0,0,0,0,0,0,0,0,0,0,0,0,-0.0872,-0.1077,-0.0664,-0.0588,-0.0579,-0.0404,-0.04,-0.0395,-0.0319,-0.0321,-0.0323,-0.0325,-0.0054,-0.0042,-0.0029,0.0092,0,0,0.0011,0.0016,0,0,0,0,0,0,0,0,-0.0884,-0.0856,-0.0603,-0.0593,-0.0583,-0.0396,-0.0448,-0.0232,-0.0318,-0.0417,-0.0323,-0.0326,-0.0161,-0.014,-0.0086,0.0104,0.0116,0.0012,0.002,0.0025,0.0029,0,0,0,0,0,0,0,-0.0899,-0.0867,-0.056,-0.0599,-0.0587,-0.0564,-0.0536,-0.0407,-0.0281,-0.0409,-0.0402,-0.0373,-0.0156,-0.0099,-0.0079,0.012,0.0011,0.0023,0.0031,0.0036,0.0426,0.0428,0,0,0,0,0,0,-0.0928,-0.088,-0.0569,-0.0553,-0.0742,-0.0555,-0.0524,-0.0454,-0.0282,-0.0258,-0.0372,-0.037,-0.012,-0.0094,-0.0069,0.0086,0.0025,0.0037,0.0044,0.0423,0.0427,0.0429,0,0,0,0,0,0,-0.0938,-0.0901,-0.0579,-0.0715,-0.0672,-0.0546,-0.0468,-0.0447,-0.039,-0.0254,-0.0231,-0.0337,-0.012,-0.0087,0.0051,0.0096,0.0043,0.0055,0.042,0.0424,0.0428,0.0395,0,0,0,0,0,0,-0.095,-0.0905,-0.086,-0.0714,-0.0665,-0.0466,-0.0465,-0.0441,-0.0369,-0.0365,-0.0215,-0.0192,-0.012,0.0031,0.0064,0.0113,0.0065,0.0417,0.0422,0.0427,0.0393,0.0397,0.0401,0,0,0,0,0,-0.0965,-0.0878,-0.0858,-0.0821,-0.0606,-0.0463,-0.0435,-0.0356,-0.0366,-0.0317,-0.023,-0.0197,0.0085,0.0045,0.0082,0.0136,0.0415,0.0421,0.0426,0.0391,0.0396,0.0401,0,0,0,0,0,0,-0.1019,-0.0858,-0.0833,-0.0697,-0.0595,-0.0451,-0.0387,-0.0353,-0.0243,-0.0243,-0.0147,-0.0114,0.0018,0.0091,0.0043,0.0263,0.0251,0.0265,0.0211,0.0218,0.0222,0.0204,0.0075,0,0,0,0,0,-0.1016,-0.0916,-0.0779,-0.0672,-0.0622,-0.0514,-0.0449,-0.0397,-0.0286,-0.0241,-0.0144,-0.0035,0.0079,0.0152,0.0263,0.0402,0.0438,0.0457,0.0462,0.0464,0.0477,0.0559,0.057,0.0449,0.0449,0.0449,0,0,-0.1006,-0.0906,-0.0848,-0.068,-0.0595,-0.049,-0.0478,-0.0368,-0.0289,-0.0224,-0.0087,-0.0012,0.0116,0.0256,0.0322,0.0321,0.0517,0.0472,0.0473,0.0484,0.0566,0.0577,0.0588,0.0453,0.0452,0.0452,0,0,-0.0935,-0.0851,-0.0751,-0.0666,-0.0538,-0.0467,-0.0443,-0.0304,-0.0252,-0.0114,-0.0063,0.0034,0.0227,0.0317,0.0388,0.0492,0.0529,0.0525,0.055,0.0629,0.0638,0.0647,0.0689,0.0702,0.0536,0.0536,0.0536,0,-0.0938,-0.0781,-0.0703,-0.0596,-0.0522,-0.0462,-0.0358,-0.0279,-0.012,-0.0069,-0.0075,0.0169,0.0259,0.0422,0.0447,0.0501,0.0535,0.0511,0.063,0.064,0.065,0.069,0.0705,0.0535,0.0535,0.0535,0.0535,0,-0.079,-0.0682,-0.0616,-0.0467,-0.0386,-0.0281,-0.0184,-0.0112,-0.0067,0.0005,0.0147,0.0256,0.0392,0.0434,0.0479,0.0605,0.06,0.061,0.0602,0.0659,0.0699,0.0715,0.0534,0.0534,0.0535,0.0535,0,0,-0.0742,-0.0552,-0.0528,-0.0459,-0.0314,-0.0227,-0.0119,0.0012,0.0074,0.0181,0.0278,0.0438,0.045,0.053,0.0585,0.0654,0.0734,0.0657,0.0662,0.0671,0.0883,0.0877,0.0894,0.0757,0.076,0.0763,0.0874,0,-0.0649,-0.0455,-0.0382,-0.0221,-0.0118,-0.0061,0.0035,0.0136,0.0206,0.0306,0.0384,0.0498,0.0502,0.0551,0.0621,0.0709,0.0779,0.0702,0.0852,0.0856,0.0822,0.0914,0.0908,0.1008,0.089,0.0892,0.0894,0,-0.0514,-0.0407,-0.0237,-0.0103,-0.0057,0.0026,0.0153,0.0246,0.0363,0.0409,0.0498,0.0549,0.0668,0.0648,0.0815,0.0761,0.0827,0.0879,0.0885,0.0906,0.0882,0.0942,0.1042,0.1058,0.0919,0.0917,0.0915,0,-0.0491,-0.0305,-0.0178,-0.0121,0.0037,0.0095,0.0164,0.0278,0.0353,0.0464,0.0514,0.0637,0.0706,0.0802,0.0886,0.0863,0.1048,0.1033,0.1094,0.1092,0.1134,0.1131,0.125,0.1168,0.1167,0.1167,0.1167,0,-0.0392,-0.0289,-0.0166,-0.0088,0.003,0.0113,0.0228,0.0302,0.0403,0.0499,0.0555,0.0645,0.0748,0.0852,0.0918,0.1049,0.1079,0.1123,0.1141,0.1121,0.1116,0.1169,0.1166,0.1171,0.117,0.1169,0.1169,0,-0.0344,-0.0258,-0.0116,0.0021,0.0058,0.0139,0.0259,0.0338,0.041,0.053,0.0564,0.0678,0.0803,0.0894,0.1056,0.1101,0.1243,0.1258,0.1203,0.1213,0.1269,0.1264,0.143,0.1458,0.1352,0.1353,0.1353,0,-0.0285,-0.0204,-0.0059,0.0008,0.0076,0.0183,0.0259,0.0344,0.0421,0.0559,0.0623,0.0751,0.0859,0.1056,0.1155,0.128,0.1302,0.1351,0.1322,0.13,0.1309,0.1304,0.1315,0.1357,0.1358,0.1358,0.1359,0,-0.0186,-0.0148,-0.0043,0.0078,0.0166,0.0265,0.0366,0.0419,0.0522,0.0606,0.0733,0.0816,0.098,0.1109,0.1243,0.1317,0.1358,0.1366,0.1388,0.1371,0.1338,0.1361,0.1219,0.1364,0.1363,0.1363,0.1363,0.1362,-0.0127,-0.0053,0.0062,0.0178,0.0262,0.0355,0.0437,0.0518,0.0624,0.0764,0.0807,0.094,0.1056,0.124,0.1316,0.1423,0.1423,0.1452,0.1461,0.1469,0.147,0.1316,0.1447,0.1447,0.1447,0.1447,0.1447,0,-0.0022,0.0053,0.0159,0.0297,0.0389,0.0413,0.0527,0.0603,0.0718,0.0822,0.0925,0.1073,0.1197,0.1305,0.1435,0.15,0.1522,0.1532,0.1531,0.1548,0.146,0.1431,0.1512,0.1512,0.1512,0.1512,0.1512,0.1512,0.0043,0.0172,0.0224,0.0397,0.0473,0.0601,0.0664,0.0751,0.0835,0.0996,0.1098,0.1166,0.1273,0.1411,0.1527,0.1556,0.1604,0.161,0.1644,0.1561,0.1554,0.1546,0.152,0.1618,0.1618,0.1724,0.1724,0.1725]}]]